CW0630 Weather Reports


time (UTC)temp
C
wind
direction
speed
KPH
gust
KPH
rain 1hr
cm
rain 24hr
cm
rain mn
cm
humidity
%
barometer
mb
20260902011030 27 180 0.0 0.0 0.00 0.00 0.00 75 1015.4
20260902001046 28 180 0.0 0.0 0.00 0.00 0.00 70 1015.0
20260901231023 30 180 0.0 0.0 0.00 0.00 0.00 65 1015.1
20260901221032 32 194 4.8 4.8 0.00 0.00 0.00 59 1015.5
20260901211013 33 326 1.6 1.6 0.00 0.00 0.00 58 1015.5
20260901201028 33 360 3.2 4.8 0.00 0.00 0.00 56 1016.0
20260901191015 35 10 3.2 6.4 0.00 0.00 0.00 50 1016.4
20260901181018 35 349 0.0 0.0 0.00 0.00 0.00 52 1016.6
20260901171043 34 316 4.8 4.8 0.00 0.00 0.00 55 1016.8
20260901161021 33 286 0.0 0.0 0.00 0.00 0.00 59 1017.7
20260901151021 33 215 6.4 6.4 0.00 0.00 0.00 65 1018.0
20260901141033 31 175 0.0 0.0 0.00 0.00 0.00 69 1018.0
20260901131019 28 205 0.0 0.0 0.00 0.00 0.00 75 1018.2
20260901121039 25 190 0.0 0.0 0.00 0.00 0.00 91 1018.2
20260901111046 23 189 0.0 0.0 0.00 0.00 0.00 93 1017.8
20260901101047 23 189 0.0 0.0 0.00 0.00 0.00 93 1017.7
20260901091018 23 174 0.0 0.0 0.00 0.00 0.00 92 1017.7
20260901081014 23 173 0.0 0.0 0.00 0.00 0.00 92 1017.7
20260901071025 23 173 0.0 0.0 0.00 0.00 0.00 91 1018.0
20260901061019 23 173 0.0 0.0 0.00 0.00 0.00 91 1018.4
20260901051029 24 173 0.0 0.0 0.00 0.00 0.00 88 1018.8
20260901041026 25 173 0.0 0.0 0.00 0.00 0.00 83 1018.8
20260901031020 26 159 3.2 3.2 0.00 0.00 0.00 81 1018.7
20260901021015 27 126 0.0 4.8 0.00 0.00 0.00 77 1018.9